TimeCST,TemperatureF,Dew PointF,Humidity,Sea Level PressureIn,VisibilityMPH,Wind Direction,Wind SpeedMPH,Gust SpeedMPH,PrecipitationIn,Events,Conditions,WindDirDegrees,DateUTC
12:15 AM,47.3,45.0,92,30.06,7.0,NNE,6.9,-,N/A,,Overcast,30,2013-01-15 06:15:00
12:35 AM,47.3,45.0,92,30.06,7.0,NNE,8.1,-,N/A,,Overcast,30,2013-01-15 06:35:00
12:55 AM,47.3,45.1,92,30.06,10.0,NNE,8.1,-,N/A,,Overcast,20,2013-01-15 06:55:00
1:15 AM,47.3,45.3,93,30.06,7.0,North,9.2,-,N/A,,Overcast,10,2013-01-15 07:15:00
1:35 AM,47.3,45.5,93,30.05,5.0,North,6.9,-,N/A,,Overcast,360,2013-01-15 07:35:00
1:55 AM,47.1,45.5,94,30.05,4.0,North,9.2,-,N/A,,Overcast,360,2013-01-15 07:55:00
2:15 AM,46.6,45.1,95,30.05,2.5,NNW,9.2,-,N/A,,Drizzle,340,2013-01-15 08:15:00
2:35 AM,46.4,45.0,95,30.06,2.5,NNW,9.2,-,N/A,,Drizzle,340,2013-01-15 08:35:00
2:55 AM,46.4,44.8,94,30.05,2.5,North,11.5,-,N/A,,Drizzle,350,2013-01-15 08:55:00
3:15 AM,46.2,44.8,95,30.06,2.5,NNW,10.4,-,N/A,,Light Drizzle,340,2013-01-15 09:15:00
3:35 AM,46.2,44.8,95,30.06,3.0,North,12.7,-,N/A,,Drizzle,350,2013-01-15 09:35:00
3:55 AM,45.9,44.6,95,30.05,3.0,North,11.5,-,N/A,,Light Drizzle,360,2013-01-15 09:55:00
4:15 AM,45.9,44.6,95,30.06,3.0,North,11.5,18.4,N/A,Rain,Rain,350,2013-01-15 10:15:00
4:55 AM,45.7,44.6,96,30.05,4.0,North,15.0,18.4,N/A,,Light Drizzle,350,2013-01-15 10:55:00
5:15 AM,45.7,44.6,96,30.05,4.0,North,12.7,-,N/A,,Light Drizzle,360,2013-01-15 11:15:00
5:35 AM,45.5,44.2,95,30.05,4.0,North,16.1,-,N/A,,Drizzle,360,2013-01-15 11:35:00
5:55 AM,45.5,44.2,95,30.05,5.0,North,15.0,19.6,N/A,Rain,Light Rain,360,2013-01-15 11:55:00
6:15 AM,45.7,44.6,96,30.05,5.0,North,13.8,-,N/A,,Light Drizzle,10,2013-01-15 12:15:00
6:35 AM,45.9,44.6,95,30.06,5.0,North,13.8,18.4,N/A,,Light Drizzle,360,2013-01-15 12:35:00
6:55 AM,45.9,44.6,95,30.07,5.0,North,15.0,19.6,N/A,,Light Drizzle,360,2013-01-15 12:55:00
7:15 AM,45.1,43.7,95,30.08,4.0,North,13.8,18.4,N/A,,Light Drizzle,360,2013-01-15 13:15:00
7:35 AM,45.0,43.7,95,30.09,4.0,North,11.5,-,N/A,,Light Drizzle,360,2013-01-15 13:35:00
7:55 AM,45.1,43.9,95,30.10,4.0,North,13.8,18.4,N/A,,Overcast,10,2013-01-15 13:55:00
8:15 AM,45.0,43.7,95,30.09,4.0,North,16.1,-,N/A,,Overcast,10,2013-01-15 14:15:00
8:35 AM,45.1,43.9,95,30.09,5.0,NNE,12.7,-,N/A,,Overcast,20,2013-01-15 14:35:00
8:55 AM,45.1,43.7,95,30.10,10.0,NNE,13.8,18.4,N/A,,Overcast,20,2013-01-15 14:55:00
9:15 AM,45.3,43.7,94,30.08,10.0,NNE,12.7,-,N/A,,Overcast,20,2013-01-15 15:15:00
9:35 AM,45.5,43.5,93,30.10,10.0,North,13.8,21.9,N/A,,Overcast,10,2013-01-15 15:35:00
9:55 AM,45.5,43.5,93,30.11,10.0,North,15.0,-,N/A,,Overcast,350,2013-01-15 15:55:00
10:15 AM,45.3,43.2,92,30.12,4.0,North,13.8,-,N/A,,Overcast,350,2013-01-15 16:15:00
10:35 AM,45.0,43.2,93,30.11,3.0,North,12.7,-,N/A,,Light Drizzle,360,2013-01-15 16:35:00
10:55 AM,44.4,43.0,95,30.11,7.0,North,13.8,19.6,N/A,,Overcast,360,2013-01-15 16:55:00
11:15 AM,44.6,43.0,94,30.10,5.0,North,13.8,-,N/A,,Overcast,360,2013-01-15 17:15:00
11:35 AM,44.6,43.0,94,30.10,5.0,North,11.5,-,N/A,,Overcast,360,2013-01-15 17:35:00
11:55 AM,44.8,43.2,94,30.09,7.0,North,13.8,-,N/A,,Overcast,350,2013-01-15 17:55:00
12:15 PM,44.8,43.2,94,30.09,5.0,North,11.5,-,N/A,,Overcast,350,2013-01-15 18:15:00
12:35 PM,44.6,43.0,94,30.08,5.0,NNW,12.7,-,N/A,,Overcast,340,2013-01-15 18:35:00
12:55 PM,44.4,42.8,94,30.05,4.0,North,15.0,-,N/A,,Overcast,360,2013-01-15 18:55:00
1:15 PM,44.4,42.8,94,30.07,7.0,North,13.8,18.4,N/A,,Overcast,350,2013-01-15 19:15:00
1:35 PM,44.2,42.4,93,30.06,10.0,North,11.5,-,N/A,,Overcast,350,2013-01-15 19:35:00
1:55 PM,44.2,42.3,93,30.07,7.0,NNW,13.8,19.6,N/A,,Overcast,340,2013-01-15 19:55:00
2:55 PM,-9999,-9999,N/A,30.07,7.0,NNW,12.7,-,N/A,,Unknown,330,2013-01-15 20:55:00
3:15 PM,43.2,41.2,93,30.07,10.0,North,16.1,-,N/A,,Overcast,350,2013-01-15 21:15:00
3:35 PM,43.0,41.2,93,30.08,10.0,NNW,16.1,-,N/A,,Overcast,340,2013-01-15 21:35:00
3:55 PM,43.2,41.0,92,30.08,10.0,NNW,18.4,21.9,N/A,,Overcast,340,2013-01-15 21:55:00
4:15 PM,43.0,40.3,90,30.09,10.0,North,13.8,-,N/A,,Overcast,350,2013-01-15 22:15:00
4:35 PM,43.0,40.1,90,30.10,10.0,North,12.7,18.4,N/A,,Overcast,350,2013-01-15 22:35:00
4:55 PM,43.2,40.1,89,30.11,10.0,NNW,12.7,18.4,N/A,,Overcast,340,2013-01-15 22:55:00
5:15 PM,43.2,39.7,88,30.12,10.0,NNW,13.8,-,N/A,,Overcast,340,2013-01-15 23:15:00
5:35 PM,43.2,39.6,87,30.12,10.0,NNW,17.3,23.0,N/A,,Overcast,340,2013-01-15 23:35:00
5:55 PM,43.0,38.8,85,30.13,10.0,North,17.3,-,N/A,,Overcast,350,2013-01-15 23:55:00
6:15 PM,42.8,38.7,85,30.14,10.0,NNW,15.0,-,N/A,,Overcast,340,2013-01-16 00:15:00
6:35 PM,42.8,38.5,85,30.15,10.0,North,12.7,-,N/A,,Overcast,350,2013-01-16 00:35:00
6:55 PM,42.8,38.5,85,30.15,10.0,North,13.8,18.4,N/A,,Overcast,350,2013-01-16 00:55:00
7:15 PM,42.8,38.5,85,30.14,10.0,North,11.5,-,N/A,,Overcast,350,2013-01-16 01:15:00
7:35 PM,42.8,38.3,84,30.15,10.0,North,11.5,-,N/A,,Overcast,350,2013-01-16 01:35:00
7:55 PM,42.8,38.3,84,30.16,10.0,North,11.5,-,N/A,,Overcast,350,2013-01-16 01:55:00
8:15 PM,42.6,38.1,84,30.16,10.0,North,16.1,19.6,N/A,,Overcast,350,2013-01-16 02:15:00
8:35 PM,42.4,37.8,83,30.17,10.0,North,13.8,19.6,N/A,,Overcast,350,2013-01-16 02:35:00
8:55 PM,42.4,37.6,83,30.18,10.0,North,15.0,19.6,N/A,,Overcast,350,2013-01-16 02:55:00
9:15 PM,42.4,37.6,83,30.18,10.0,North,13.8,21.9,N/A,,Overcast,350,2013-01-16 03:15:00
9:35 PM,42.4,37.6,83,30.18,10.0,North,15.0,23.0,N/A,,Overcast,350,2013-01-16 03:35:00
9:55 PM,42.6,37.9,83,30.18,10.0,North,15.0,19.6,N/A,,Overcast,350,2013-01-16 03:55:00
10:15 PM,42.8,37.8,82,30.19,10.0,North,18.4,23.0,N/A,,Overcast,350,2013-01-16 04:15:00
10:35 PM,42.8,37.8,82,30.20,10.0,North,18.4,25.3,N/A,,Overcast,350,2013-01-16 04:35:00
10:55 PM,42.8,37.6,82,30.20,10.0,North,17.3,26.5,N/A,,Overcast,350,2013-01-16 04:55:00
11:15 PM,42.8,37.8,82,30.20,10.0,North,12.7,-,N/A,,Overcast,350,2013-01-16 05:15:00
11:35 PM,42.8,38.1,84,30.22,10.0,NNW,11.5,17.3,N/A,,Overcast,340,2013-01-16 05:35:00